Location: Ferchesar
(52.6477°N, 12.4298°E)
Time: 10:20:49
(UTC+01:00)

Transit 2A - Pass Details

Date: 07 December 2021
Orbit: 591 x 966 km, 66.7° (Epoch: 26 January)

Event Time Altitude Azimuth Distance (km) Brightness Sun altitude
Exits shadow 06:39:10 11° 324° (NW) 2,669 8.3 -12.4°
Maximum altitude 06:45:17 50° 39° (NE) 1,211 7.1 -11.5°
Drops below altitude 10° 06:51:22 10° 114° (ESE) 2,655 10.4 -10.7°
Sets 06:53:57 0° 120° (ESE) 3,562 11.6 -10.3°
